Tracking 18673 objects as of 28-June-2017
HD Live streaming from Space Station
objects crossing your sky now

ECHOSTAR 1

Track ECHOSTAR 1 now!
ECHOSTAR 1 is classified as:


NORAD ID: 23754
Int'l Code: 1995-073A
Perigee: 35,783.1 km
Apogee: 35,804.2 km
Inclination: 0.8 °
Period: 1,436.1 minutes
Semi major axis: 42164 km
RCS: 30.9641 m2 (large)
Launch date: December 28, 1995
Source: United States (US)
Launch site: Xichang Space Center, China (XSC)

Western United States to Central/Mountain region; 16 Ku-band transponders
Your satellite tracking list
Your tracking list is empty





NASA's NSSDC Master Catalog

Two Line Element Set (TLE):
1 23754U 95073A   17178.52754459 -.00000260 +00000-0 +00000-0 0  9999
2 23754 000.8363 090.1767 0002497 010.3594 287.9433 01.00272218019556
Source of the keplerian elements: AFSPC